When you browse on this site, cookies collect data to enhance your experience and personalize the content and advertising you see.
Visit our Privacy Policy to learn more. By continuing to use the site, you agree to this use of cookies and data.
  • In Portugal
  • List of Countries
  • For 7 days
  • Water Temperature
  • Weather Map
  • Weather Widgets
  • user-avatar
    Login

    Hourly Weather Cahur

    Today, 21 August, Wednesday

    Time Temperature Precipitation Wind Pressure Humidity
    00:00 +15°C° 0 mm 1 mps 611 mmHg 63%
    01:00 +14°C° 0 mm 1 mps 611 mmHg 63%
    02:00 +14°C° 0 mm 1 mps 611 mmHg 63%
    03:00 +14°C° 0 mm 1 mps 611 mmHg 63%
    04:00 +14°C° 0 mm 1 mps 611 mmHg 62%
    05:00 +15°C° 0 mm 1 mps 611 mmHg 60%
    06:00 +16°C° 0 mm 1 mps 611 mmHg 58%
    07:00 +19°C° 0 mm 1 mps 612 mmHg 51%
    08:00 +21°C° 0 mm 1 mps 613 mmHg 44%
    09:00 +24°C° 0 mm 1 mps 614 mmHg 37%
    10:00 +24°C° 0 mm 2 mps 614 mmHg 37%
    11:00 +25°C° 0 mm 2 mps 614 mmHg 37%
    12:00 +26°C° 0 mm 2 mps 614 mmHg 37%
    13:00 +26°C° 0 mm 2 mps 614 mmHg 38%
    14:00 +26°C° 0 mm 2 mps 613 mmHg 39%
    15:00 +25°C° 0 mm 2 mps 613 mmHg 41%
    16:00 +24°C° 0 mm 2 mps 612 mmHg 45%
    17:00 +23°C° 0 mm 2 mps 612 mmHg 50%
    18:00 +22°C° 0 mm 1 mps 611 mmHg 54%
    19:00 +20°C° 0 mm 1 mps 610 mmHg 57%
    20:00 +18°C° 0 mm 1 mps 610 mmHg 59%
    21:00 +16°C° 0 mm 1 mps 609 mmHg 61%
    22:00 +15°C° 0 mm 1 mps 609 mmHg 62%
    23:00 +15°C° 0 mm 1 mps 609 mmHg 63%

    Tomorrow, 22 August, Thursday

    Time Temperature Precipitation Wind Pressure Humidity
    00:00 +15°C° 0 mm 1 mps 609 mmHg 64%
    01:00 +15°C° 0 mm 1 mps 609 mmHg 64%
    02:00 +14°C° 0 mm 1 mps 608 mmHg 64%
    03:00 +14°C° 0 mm 1 mps 608 mmHg 65%
    04:00 +15°C° 0 mm 1 mps 608 mmHg 64%
    05:00 +15°C° 0 mm 1 mps 609 mmHg 63%
    06:00 +16°C° 0 mm 1 mps 609 mmHg 62%
    07:00 +19°C° 0 mm 1 mps 610 mmHg 54%
    08:00 +21°C° 0 mm 1 mps 611 mmHg 46%
    09:00 +24°C° 0 mm 1 mps 612 mmHg 39%
    10:00 +24°C° 0 mm 2 mps 612 mmHg 38%
    11:00 +25°C° 0 mm 2 mps 612 mmHg 38%
    12:00 +26°C° 0 mm 3 mps 612 mmHg 38%
    13:00 +26°C° 0 mm 3 mps 612 mmHg 38%
    14:00 +26°C° 0 mm 3 mps 611 mmHg 38%
    15:00 +26°C° 0 mm 2 mps 611 mmHg 38%
    16:00 +24°C° 0 mm 2 mps 610 mmHg 43%
    17:00 +23°C° 0 mm 1 mps 610 mmHg 47%
    18:00 +22°C° 0 mm 1 mps 609 mmHg 52%
    19:00 +20°C° 0 mm 1 mps 609 mmHg 54%
    20:00 +18°C° 0 mm 1 mps 609 mmHg 55%
    21:00 +16°C° 0 mm 1 mps 609 mmHg 56%
    22:00 +15°C° 0 mm 1 mps 608 mmHg 58%
    23:00 +15°C° 0 mm 1 mps 608 mmHg 59%

    Day after tomorrow, 23 August, Friday

    Time Temperature Precipitation Wind Pressure Humidity
    00:00 +15°C° 0 mm 1 mps 608 mmHg 61%
    01:00 +15°C° 0 mm 1 mps 608 mmHg 61%
    02:00 +14°C° 0 mm 1 mps 608 mmHg 60%
    03:00 +14°C° 0 mm 1 mps 608 mmHg 60%
    04:00 +15°C° 0 mm 1 mps 608 mmHg 60%
    05:00 +15°C° 0 mm 1 mps 609 mmHg 59%
    06:00 +16°C° 0 mm 1 mps 609 mmHg 59%
    07:00 +19°C° 0 mm 1 mps 610 mmHg 51%
    08:00 +21°C° 0 mm 1 mps 611 mmHg 44%
    09:00 +23°C° 0 mm 2 mps 612 mmHg 36%
    10:00 +24°C° 0 mm 2 mps 612 mmHg 35%
    11:00 +25°C° 0 mm 3 mps 612 mmHg 34%
    12:00 +26°C° 0 mm 3 mps 612 mmHg 33%
    13:00 +26°C° 0 mm 3 mps 612 mmHg 34%
    14:00 +26°C° 0 mm 3 mps 612 mmHg 34%
    15:00 +26°C° 0 mm 3 mps 612 mmHg 34%
    16:00 +24°C° 0 mm 2 mps 611 mmHg 40%
    17:00 +23°C° 0 mm 1 mps 611 mmHg 46%
    18:00 +22°C° 0 mm 1 mps 610 mmHg 52%
    19:00 +20°C° 0 mm 1 mps 610 mmHg 53%
    20:00 +18°C° 0 mm 1 mps 609 mmHg 55%
    21:00 +16°C° 0 mm 1 mps 609 mmHg 57%
    22:00 +16°C° 0 mm 1 mps 609 mmHg 58%
    23:00 +15°C° 0 mm 1 mps 609 mmHg 58%

    24 August, Saturday

    Time Temperature Precipitation Wind Pressure Humidity
    00:00 +15°C° 0 mm 1 mps 609 mmHg 59%
    01:00 +15°C° 0 mm 1 mps 609 mmHg 59%
    02:00 +15°C° 0 mm 1 mps 608 mmHg 60%
    03:00 +14°C° 0 mm 1 mps 608 mmHg 60%
    04:00 +15°C° 0 mm 1 mps 609 mmHg 58%
    05:00 +15°C° 0 mm 1 mps 609 mmHg 56%
    06:00 +16°C° 0 mm 1 mps 609 mmHg 54%
    07:00 +19°C° 0 mm 1 mps 610 mmHg 47%
    08:00 +21°C° 0 mm 1 mps 611 mmHg 40%
    09:00 +23°C° 0 mm 2 mps 612 mmHg 33%
    10:00 +24°C° 0 mm 2 mps 613 mmHg 33%
    11:00 +25°C° 0 mm 3 mps 613 mmHg 33%
    12:00 +26°C° 0 mm 4 mps 613 mmHg 34%
    13:00 +25°C° 0.1 mm 3 mps 612 mmHg 35%
    14:00 +25°C° 0.1 mm 3 mps 612 mmHg 36%
    15:00 +25°C° 0.1 mm 2 mps 612 mmHg 37%
    16:00 +24°C° 0.1 mm 2 mps 611 mmHg 43%
    17:00 +22°C° 0.1 mm 1 mps 611 mmHg 49%
    18:00 +21°C° 0.1 mm 1 mps 611 mmHg 55%
    19:00 +19°C° 0 mm 1 mps 611 mmHg 57%
    20:00 +18°C° 0 mm 1 mps 610 mmHg 59%
    21:00 +15°C° 0 mm 1 mps 610 mmHg 61%
    22:00 +15°C° 0 mm 1 mps 610 mmHg 61%
    23:00 +15°C° 0 mm 1 mps 610 mmHg 61%

    25 August, Sunday

    Time Temperature Precipitation Wind Pressure Humidity
    00:00 +15°C° 0 mm 1 mps 610 mmHg 61%
    01:00 +15°C° 0.1 mm 1 mps 610 mmHg 63%
    02:00 +15°C° 0.1 mm 1 mps 610 mmHg 65%
    03:00 +15°C° 0.1 mm 2 mps 610 mmHg 66%
    04:00 +15°C° 0.1 mm 1 mps 610 mmHg 68%
    05:00 +15°C° 0.1 mm 1 mps 610 mmHg 69%
    06:00 +15°C° 0.1 mm 1 mps 610 mmHg 70%
    07:00 +18°C° 0 mm 1 mps 611 mmHg 64%
    08:00 +18°C° 0 mm 2 mps 612 mmHg 58%
    09:00 +20°C° 0 mm 2 mps 612 mmHg 52%
    10:00 +20°C° 0.3 mm 2 mps 612 mmHg 49%
    11:00 +21°C° 0.3 mm 3 mps 612 mmHg 47%
    12:00 +22°C° 0.3 mm 3 mps 612 mmHg 44%
    13:00 +22°C° 0.2 mm 3 mps 612 mmHg 43%
    14:00 +22°C° 0.2 mm 3 mps 612 mmHg 42%
    15:00 +22°C° 0.2 mm 3 mps 612 mmHg 40%
    16:00 +21°C° 0 mm 2 mps 611 mmHg 44%
    17:00 +20°C° 0 mm 2 mps 611 mmHg 48%
    18:00 +20°C° 0 mm 1 mps 610 mmHg 52%
    19:00 +18°C° 0 mm 1 mps 610 mmHg 52%
    20:00 +16°C° 0 mm 1 mps 610 mmHg 53%
    21:00 +14°C° 0 mm 1 mps 609 mmHg 54%
    22:00 +14°C° 0 mm 1 mps 609 mmHg 53%
    23:00 +13°C° 0 mm 1 mps 609 mmHg 53%

    26 August, Monday

    Time Temperature Precipitation Wind Pressure Humidity
    00:00 +13°C° 0 mm 1 mps 609 mmHg 53%
    01:00 +13°C° 0 mm 1 mps 609 mmHg 52%
    02:00 +13°C° 0 mm 1 mps 609 mmHg 51%
    03:00 +13°C° 0 mm 1 mps 609 mmHg 50%
    04:00 +13°C° 0 mm 1 mps 609 mmHg 52%
    05:00 +14°C° 0 mm 1 mps 609 mmHg 54%
    06:00 +14°C° 0 mm 1 mps 610 mmHg 56%
    07:00 +16°C° 0 mm 1 mps 610 mmHg 51%
    08:00 +19°C° 0 mm 1 mps 611 mmHg 46%
    09:00 +21°C° 0 mm 1 mps 612 mmHg 41%
    10:00 +21°C° 0.1 mm 2 mps 613 mmHg 41%
    11:00 +23°C° 0.1 mm 2 mps 613 mmHg 40%
    12:00 +24°C° 0.1 mm 2 mps 613 mmHg 40%
    13:00 +23°C° 0.3 mm 2 mps 613 mmHg 43%
    14:00 +23°C° 0.3 mm 2 mps 612 mmHg 45%
    15:00 +23°C° 0.3 mm 2 mps 612 mmHg 47%
    16:00 +21°C° 0.3 mm 1 mps 612 mmHg 53%
    17:00 +20°C° 0.3 mm 1 mps 612 mmHg 59%
    18:00 +19°C° 0.3 mm 1 mps 611 mmHg 65%
    19:00 +18°C° 0.1 mm 1 mps 611 mmHg 68%
    20:00 +15°C° 0.1 mm 1 mps 611 mmHg 71%
    21:00 +14°C° 0.1 mm 1 mps 611 mmHg 74%
    22:00 +14°C° 0 mm 1 mps 612 mmHg 73%
    23:00 +14°C° 0 mm 1 mps 612 mmHg 73%
    Show more